Weather in Boryspil

Ukraine / Kyiv Region     50˚20′53″N   30˚57′21″E
temp.,
°C
wind,
m/s
gust,
m/s
humid.,
%
clouds,
%
prec.,
mm/h
press.,
hPa
HPBL,
m
28 november, sat
sat2823:00+3˚wsw4785100 0.0 1019288
02:00+3˚wsw3691100 0.0 1019299
05:00+3˚sw2497100 0.1 1018168
08:00+3˚sw2295100 0.1 101857
11:00+3˚w1296100 0.1 1018123
14:00+3˚nw2294100 0.5 1018222
17:00+3˚nnw0192100 0.0 101852
20:00+3˚w1193100 0.1 1018123
29 november, sun
sun2923:00+2˚sw1190100 0.0 101924
02:00+1˚w1285100 0.0 101924
05:00+1˚w1187100 0.0 101922
08:00sw128896 0.0 102022
11:00+3˚sw227693 0.0 1020365
14:00+4˚ssw126457 0.0 1021630
17:00+2˚se238451 0.0 102169
20:00+1˚sse129368 0.0 102222
30 november, mon
mon3023:00+1˚s119670 0.0 102322
02:00+1˚nnw119783 0.0 102376
05:00n119487 0.0 102291
08:00nnw129374 0.0 102441
11:00+2˚nnw3583100 0.0 1024389
14:00+2˚nnw3577100 0.0 1024541
17:00+1˚n2479100 0.0 1025249
20:00+1˚nne2484100 0.2 1026294
1 december, tue
tue123:00nnw2492100 0.7 1027321
02:00n3592100 1.1 1027382
05:00−1˚n478999 0.0 1027341
08:00−2˚n478772 0.0 1028267
11:00n46774 0.0 1028431
14:00+1˚n46742 0.0 1027525
17:00−1˚n37872 0.0 1027207
20:00−2˚n479013 0.0 1028259
2 december, wed
wed223:00−1˚nne359478 0.1 1028245
02:00−1˚n239487 0.1 1028141
05:00nne2297100 0.1 1027121
08:00nne1298100 0.3 1027115
11:00+1˚ne229098 0.0 1028291
14:00+1˚ne128799 0.0 1027316
17:00ne2398100 0.1 1027132
20:00ne2398100 0.4 1028148